Miscellaneous Local Product
Issued by NWS Hastings, NE

Home | Current Version | Previous Version | Text Only | Print | Product List | Glossary Off
Versions: 1 2 3 4 5 6 7 8 9 10 11 12 13 14 15 16 17 18 19 20 21 22 23 24 25 26 27 28 29 30 31 32 33 34 35 36 37 38 39 40 41 42 43 44 45 46 47 48 49 50

000
AXUS43 KGID 222302
MISGRI

GID CWA HOURLY WEATHER ROUNDUP
NATIONAL WEATHER SERVICE HASTINGS NE
600 PM CDT FRI MAY 22 2015

NOTE: "FAIR" INDICATES FEW OR NO CLOUDS BELOW 12,000 FEET WITH NO
SIGNIFICANT WEATHER AND/OR OBSTRUCTIONS TO VISIBILITY.

...SOUTH CENTRAL NEBRASKA...

CITY           SKY/WX    TMP DP  RH WIND       PRES   REMARKS
GRAND ISLAND   LGT RAIN  54  46  74 SE9G20    30.18S
HASTINGS       LGT RAIN  55  46  71 SE9G18    30.16F
KEARNEY        CLOUDY    52  46  82 E15       30.16S
ORD            LGT RAIN  52  45  77 E8        30.16F
YORK           CLOUDY    59  46  63 SE13      30.17F
AURORA         LGT RAIN  56  47  71 SE7       30.18R
LEXINGTON      LGT RAIN  51  48  92 E14       30.13S
HOLDREGE       LGT RAIN  50  48  93 E17       30.13F
HEBRON         CLOUDY    61  46  58 SE12      30.17S

...NEBRASKA PANHANDLE...

CITY           SKY/WX    TMP DP  RH WIND       PRES   REMARKS
CHADRON        CLOUDY    52  44  74 SE13      30.07S
ALLIANCE       CLOUDY    48  44  86 SE16      30.05F
SCOTTSBLUFF    LGT RAIN  49  47  93 SE17      30.04F FOG
SIDNEY         LGT RAIN  48  46  93 SE20G25   30.04S FOG

...WESTERN AND NORTH CENTRAL NEBRASKA...

CITY           SKY/WX    TMP DP  RH WIND       PRES   REMARKS
VALENTINE      LGT RAIN  51  44  77 SE18G28   30.15F
AINSWORTH      LGT RAIN  50  46  85 SE15      30.16F
ONEILL         LGT RAIN  51  48  89 SE10      30.21F
BROKEN BOW     LGT RAIN  50  45  83 E12G22    30.14F
IMPERIAL       CLOUDY    49  46  90 E17G25    30.05F
NORTH PLATTE   LGT RAIN  47  45  93 E15       30.12S
MCCOOK         CLOUDY    51  49  92 E15       30.07F

...EASTERN NEBRASKA...

CITY           SKY/WX    TMP DP  RH WIND       PRES   REMARKS
NORFOLK        LGT RAIN  55  50  83 NE8       30.20F
SO SIOUX CITY  CLOUDY    65  41  41 SW20      30.21R
TEKAMAH        CLOUDY    60  51  72 SE6       30.21F
COLUMBUS       CLOUDY    59  46  63 E8        30.21F
ALBION         CLOUDY    55  46  71 NE7       30.19F
OMAHA EPPLEY   PTSUNNY   65  47  52 E9        30.20F
OFFUTT AFB     PTSUNNY   66  48  52 E7        30.19F
MILLARD        CLOUDY    66  44  45 E5        30.19F
LINCOLN        CLOUDY    63  45  51 S10       30.20F
NEBRASKA CITY  PTSUNNY   64  42  44 SE7       30.21F
BEATRICE       CLOUDY    62  43  49 SE10      30.19F
FALLS CITY     CLOUDY    65  46  50 SE8       30.20F

...NORTHERN KANSAS...

CITY           SKY/WX    TMP DP  RH WIND       PRES   REMARKS
GOODLAND       CLOUDY    55  52  89 SE20G30   29.99F
HILL CITY      CLOUDY    55  50  83 E10       30.10S
NORTON         LGT RAIN  52  48  87 E9        30.09F
PHILLIPSBURG   CLOUDY    55  55 100 E12       30.12F FOG
SMITH CENTER   DRIZZLE   52  52 100 E13       30.14F
HAYS           CLOUDY    55  48  76 SE12      30.10F
RUSSELL        CLOUDY    55  54  96 SE12      30.10F FOG
CONCORDIA      CLOUDY    59  50  72 SE9       30.15F
SALINA         CLOUDY    60  55  83 SE9       30.14F
TOPEKA         CLOUDY    65  47  52 E12       30.20F



USA.gov is the U.S. government's official web portal to all federal, state and local government web resources and services.